Regional Weather Roundup
Issued by NWS

Home | Current Version | Previous Version | Graphics & Text | Print | Product List | Glossary On
Versions: 1 2 3 4 5 6 7 8 9 10 11 12 13 14 15 16 17 18 19 20 21 22 23 24 25 26 27 28 29 30 31 32 33 34 35 36 37 38 39 40 41 42 43 44 45 46 47 48 49 50
000
ASUS43 KFSD 252010
RWRSD

WEATHER ROUNDUP FOR SOUTH DAKOTA
NATIONAL WEATHER SERVICE SIOUX FALLS SD
300 PM CDT TUE APR 25 2017

NOTE: "FAIR" INDICATES FEW OR NO CLOUDS BELOW 12,000 FEET WITH NO
SIGNIFICANT WEATHER AND/OR OBSTRUCTIONS TO VISIBILITY.


SDZ001>005-009-010-012>017-252100-
NORTHWEST AND NORTH CENTRAL SOUTH DAKOTA

CITY           SKY/WX    TMP DP  RH WIND       PRES   REMARKS
BUFFALO          N/A     28  26  92 N22       29.77R WCI  14
FAITH            N/A     27  27 100 N18       29.82R WCI  14
MOBRIDGE       CLOUDY    34  25  69 N18G28    29.79R WCI  23
$$

SDZ012>016-024>037-041>051-057-063-072>074-252100-
SOUTHWEST AND SOUTH CENTRAL SOUTH DAKOTA

CITY           SKY/WX    TMP DP  RH WIND       PRES   REMARKS
RAPID CTY ARPT LGT SNOW  30  27  88 N17       29.80R FOG     WCI  18
PIERRE         CLOUDY    35  28  75 N17       29.77R WCI  25
CUSTER         LGT SNOW  26  22  84 NE8       29.67R FOG     WCI  18
ELLSWORTH AFB  LGT SNOW  30  30  99 N13       29.80R FOG     WCI  20
PHILIP         SNOW      32  31  96 N17       29.80R VSB 1/2 WCI  21
PINE RIDGE     MIX PCPN  37  32  82 N17       29.73S
SPEARFISH      LGT SNOW  27  27 100 NE7       29.81R WCI  19
WINNER         LGT RAIN  38  33  82 N16       29.72R
$$

SDZ004>011-016>023-039-040-252100-
NORTHEAST SOUTH DAKOTA

CITY           SKY/WX    TMP DP  RH WIND       PRES   REMARKS
ABERDEEN       CLOUDY    36  27  69 N24G31    29.76R
WATERTOWN      CLOUDY    36  32  85 N17G26    29.64R
BROOKINGS      CLOUDY    37  34  89 N20       29.62R
SISSETON         N/A     37  33  85 N28       29.67S
$$

SDZ017-020-022-023-036>040-048>070-252100-
SOUTHEAST SOUTH DAKOTA

CITY           SKY/WX    TMP DP  RH WIND       PRES   REMARKS
SIOUX FALLS    RAIN      41  41 100 NE10      29.61R FOG
HURON          CLOUDY    38  32  79 N23G29    29.69R
CHAMBERLAIN    CLOUDY    40  34  77 NW16G26   29.71S
MITCHELL       CLOUDY    40  33  76 N17G26    29.69R
YANKTON        CLOUDY    43  37  81 NW16G22   29.61S
$$

ABBREVIATIONS USED IN REMARKS
   TC - TEMPERATURE IN CELSIUS
  WCI - WIND CHILL INDEX
   HX - HEAT INDEX
  VSB - VISIBILITY





USA.gov is the U.S. government's official web portal to all federal, state and local government web resources and services.